[[{"header":{"parameterUnit":"m.s-1","parameterCategory":1,"la1":30.2991,"la2":30.254,"lo1":-89.0895,"lo2":-89.0444,"dy":0.0017,"dx":0.0017,"nx":28,"ny":28,"refTime":"2024-04-11T03:00:00:Z","depth":0,"parameterNumber":2,"parameterNumberName":"U-component_of_WINDS"},"data":[0,0,0,0,0,0,0,0,0,0,0,0,0,0,0,0,0,0,0,0,0,0,0,0,0,0,0,0,0,0,0,0,0,0,0,0,0,0,0,0,0,0,0,0,0,0,0,0,0,0,0,0,0,0,0,0,0,0,1.4506,1.4506,0,1.4507,1.4507,1.4507,1.4478,1.4477,1.4477,1.4476,1.4476,1.4477,1.4478,0,0,0,0,0,0,0,0,0,0,0,0,0,1.448,1.448,1.4506,1.4506,1.4506,1.4507,1.4507,1.4507,1.4478,1.4477,1.4477,1.4476,1.4476,1.4477,1.4478,0,0,0,0,0,0,0,0,0,0,0,0,0,1.4487,1.4481,1.4506,1.4492,1.4491,1.4507,1.4507,1.4507,1.4479,1.4477,1.4476,1.4475,1.4476,1.4477,1.4478,1.4508,0,0,1.4481,1.4482,0,0,0,0,0,0,0,0,1.4487,1.4488,1.4494,1.4493,1.4492,1.4491,1.4498,1.4508,1.4479,1.4483,1.4476,1.4475,1.4482,1.4483,1.4486,1.4508,1.4508,1.4482,1.4482,1.4483,1.4483,0,0,0,0,0,0,0,1.4486,1.4488,1.4507,1.4494,1.4493,1.4486,1.4485,1.45,1.4489,1.4483,1.4481,1.4481,1.4481,1.4485,1.4485,1.4508,1.4482,1.4482,1.4483,1.4484,1.4556,1.4557,0,0,0,0,0,0,1.4488,1.4488,1.4507,1.4507,1.4486,1.4487,1.4487,1.4493,1.4489,1.4487,1.4482,1.448,1.4483,1.4484,1.4485,1.4521,1.4483,1.4484,1.4484,1.4555,1.4556,1.4558,0,0,0,0,0,0,1.4487,1.449,1.4507,1.4497,1.4498,1.4489,1.4496,1.4493,1.4496,1.4489,1.4487,1.4487,1.4482,1.4484,1.4503,1.452,1.4484,1.4485,1.4553,1.4555,1.4557,1.4591,0,0,0,0,0,0,1.4487,1.449,1.4501,1.4497,1.4499,1.4524,1.4497,1.4494,1.4498,1.4495,1.4493,1.4491,1.4482,1.4501,1.4504,1.4521,1.4486,1.4552,1.4554,1.4556,1.4589,1.4594,1.4599,0,0,0,0,0,1.4486,1.451,1.4502,1.4504,1.4513,1.4525,1.4526,1.4515,1.45,1.4511,1.4506,1.4491,1.4518,1.4504,1.4506,1.4524,1.4551,1.4553,1.4556,1.4586,1.4593,1.4599,0,0,0,0,0,0,1.4516,1.451,1.45,1.4524,1.4526,1.452,1.4534,1.4522,1.4528,1.4525,1.451,1.451,1.4531,1.4529,1.4514,1.4553,1.4532,1.4535,1.4554,1.456,1.4565,1.4565,1.4487,0,0,0,0,0,1.4526,1.4536,1.453,1.4552,1.4553,1.4544,1.4549,1.454,1.4541,1.4541,1.4538,1.4539,1.4548,1.4554,1.4561,1.4588,1.4588,1.4602,1.4607,1.4611,1.4615,1.4629,1.4636,1.4567,1.4567,1.4567,0,0,1.4545,1.4543,1.4551,1.4558,1.4558,1.457,1.4544,1.4558,1.4566,1.4543,1.4561,1.4559,1.4559,1.4583,1.4593,1.4582,1.4633,1.4615,1.4618,1.4619,1.4633,1.4639,1.4645,1.4569,1.4569,1.4568,0,0,1.4587,1.4586,1.4605,1.4606,1.4607,1.46,1.4605,1.4602,1.4599,1.4617,1.46,1.461,1.4625,1.4627,1.4629,1.4673,1.4659,1.4676,1.4703,1.4717,1.4723,1.4727,1.4743,1.4749,1.4679,1.4679,1.4679,0,1.4611,1.4628,1.4616,1.4631,1.4635,1.4615,1.4633,1.4635,1.4638,1.4641,1.4629,1.4648,1.4647,1.467,1.4681,1.4684,1.4689,1.4676,1.4723,1.4728,1.4732,1.4747,1.4753,1.4681,1.4681,1.468,1.468,0,1.4659,1.4671,1.4686,1.469,1.4695,1.4712,1.4702,1.4709,1.47,1.4695,1.4714,1.4712,1.4719,1.4724,1.4715,1.4747,1.474,1.4725,1.4703,1.4741,1.4754,1.476,1.4684,1.4683,1.4682,1.4682,0,0,1.4719,1.4717,1.4723,1.4724,1.4724,1.4733,1.4749,1.4756,1.4763,1.4766,1.4779,1.4793,1.478,1.4783,1.4774,1.4786,1.4822,1.477,1.477,1.478,1.4857,1.4868,1.4875,1.4813,1.4814,1.4814,1.4857,0,1.476,1.4788,1.4777,1.4805,1.4817,1.4798,1.4812,1.4813,1.4809,1.4818,1.4814,1.4824,1.4806,1.4807,1.4819,1.4815,1.4837,1.4812,1.4825,1.4826,1.4826,1.4882,1.4894,1.4934,1.4862,1.4863,1.4864,0,1.4812,1.4818,1.4847,1.4846,1.485,1.4863,1.4869,1.4877,1.4879,1.4875,1.4879,1.4867,1.4883,1.4861,1.4882,1.4866,1.487,1.4869,1.487,1.4871,1.4847,1.4885,1.4946,1.4953,1.4872,1.4872,1.4871,0,1.4854,1.4869,1.4889,1.4891,1.4889,1.4899,1.4898,1.4899,1.4904,1.4909,1.4913,1.4919,1.4923,1.4929,1.492,1.4905,1.4943,1.492,1.494,1.4941,1.4949,1.4949,1.5013,1.4952,1.4952,1.4952,1.4952,0,1.4901,1.492,1.4908,1.492,1.494,1.4928,1.4949,1.4947,1.4947,1.4959,1.4943,1.4954,1.494,1.495,1.4943,1.4962,1.4964,1.4961,1.4959,1.4963,1.4963,1.4966,1.4963,1.4953,1.4953,1.4953,1.4952,0,1.4952,1.4944,1.4964,1.4962,1.4961,1.4977,1.4974,1.4985,1.498,1.4995,1.4998,1.499,1.5001,1.4992,1.5002,1.4997,1.5023,1.5017,1.5023,1.5021,1.5042,1.504,1.511,1.5119,1.5052,1.5053,1.5053,0,1.4982,1.4997,1.4996,1.5002,1.5003,1.5014,1.502,1.5008,1.5014,1.5017,1.5028,1.5038,1.5045,1.5063,1.5058,1.5066,1.506,1.5084,1.5061,1.5065,1.5061,1.506,1.5062,1.5089,1.509,1.509,1.5091,0,1.5038,1.5034,1.5042,1.505,1.5057,1.5062,1.5066,1.5073,1.5061,1.5069,1.508,1.5086,1.5097,1.5106,1.5113,1.5113,1.51,1.5098,1.5103,1.5107,1.511,1.5109,1.5036,1.5096,1.5096,1.5095,1.5095,1.5095,1.508,1.5092,1.5093,1.5103,1.5105,1.511,1.512,1.5117,1.5126,1.5134,1.5127,1.514,1.5142,1.5149,1.515,1.5161,1.5151,1.5158,1.516,1.5162,1.5165,1.5109,1.5162,1.5162,1.5162,1.5161,1.5161,0,1.5135,1.5135,1.5145,1.5151,1.516,1.5147,1.5151,1.5159,1.5171,1.5173,1.5181,1.5194,1.5203,1.52,1.5208,1.5217,1.5211,1.522,1.5219,1.5219,1.5174,1.5168,1.5224,1.5224,1.5224,1.5224,1.5224,1.5224,1.5165,1.5185,1.5181,1.5201,1.5201,1.5215,1.5218,1.5222,1.5224,1.5239,1.5247,1.5245,1.5245,1.5253,1.5261,1.526,1.5264,1.5274,1.5271,1.5228,1.5222,1.5216,1.5211,1.5275,1.5275,1.5316,1.5316,1.5316]},{"header":{"parameterUnit":"m.s-1","parameterCategory":1,"la1":30.2991,"la2":30.254,"lo1":-89.0895,"lo2":-89.0444,"dy":0.0017,"dx":0.0017,"nx":28,"ny":28,"refTime":"2024-04-11T03:00:00:Z","depth":0,"parameterNumber":3,"parameterNumberName":"V-component_of_WINDS"},"data":[0,0,0,0,0,0,0,0,0,0,0,0,0,0,0,0,0,0,0,0,0,0,0,0,0,0,0,0,0,0,0,0,0,0,0,0,0,0,0,0,0,0,0,0,0,0,0,0,0,0,0,0,0,0,0,0,0,0,-1.9628,-1.9629,0,-1.9708,-1.9709,-1.971,-1.9699,-1.9698,-1.9697,-1.9696,-1.9776,-1.978,-1.9783,0,0,0,0,0,0,0,0,0,0,0,0,0,-1.9469,-1.9472,-1.9628,-1.9629,-1.963,-1.9708,-1.9709,-1.971,-1.97,-1.9698,-1.9697,-1.9695,-1.9775,-1.9779,-1.9783,0,0,0,0,0,0,0,0,0,0,0,0,0,-1.9542,-1.9473,-1.9628,-1.9635,-1.9636,-1.9707,-1.9709,-1.971,-1.97,-1.9698,-1.9696,-1.9694,-1.9774,-1.9779,-1.9784,-1.9854,0,0,-1.9799,-1.9801,0,0,0,0,0,0,0,0,-1.9538,-1.9548,-1.9633,-1.9634,-1.9636,-1.9692,-1.9682,-1.9758,-1.97,-1.9676,-1.9696,-1.9693,-1.975,-1.9757,-1.9776,-1.9857,-1.9861,-1.98,-1.9803,-1.9805,-1.9806,0,0,0,0,0,0,0,-1.9533,-1.9544,-1.966,-1.9634,-1.9636,-1.9634,-1.9642,-1.9696,-1.9723,-1.9678,-1.9677,-1.9687,-1.975,-1.9771,-1.9778,-1.9862,-1.9799,-1.9804,-1.9807,-1.9809,-2.0006,-2.0009,0,0,0,0,0,0,-1.9526,-1.954,-1.9657,-1.9662,-1.9581,-1.9638,-1.9647,-1.9676,-1.9722,-1.9727,-1.9688,-1.9686,-1.9763,-1.9772,-1.978,-1.9866,-1.9805,-1.9809,-1.9812,-2.0004,-2.0007,-2.0009,0,0,0,0,0,0,-1.9523,-1.9537,-1.9654,-1.9601,-1.9616,-1.9643,-1.9675,-1.9678,-1.9699,-1.973,-1.9735,-1.9705,-1.9762,-1.9773,-1.9836,-1.9869,-1.9812,-1.9816,-2.0002,-2.0005,-2.0008,-2.0037,0,0,0,0,0,0,-1.9518,-1.9535,-1.9562,-1.9602,-1.9619,-1.9708,-1.9677,-1.9681,-1.9708,-1.9706,-1.9746,-1.9751,-1.9761,-1.9828,-1.9841,-1.9874,-1.982,-1.9999,-2.0003,-2.0007,-2.0034,-2.0041,-2.0048,0,0,0,0,0,-1.9512,-1.9567,-1.9563,-1.9578,-1.9653,-1.971,-1.972,-1.973,-1.971,-1.9738,-1.9758,-1.975,-1.9863,-1.9835,-1.9849,-1.9884,-1.9997,-2.0002,-2.0007,-2.003,-2.004,-2.0048,0,0,0,0,0,0,-1.9529,-1.9572,-1.9569,-1.9638,-1.967,-1.9708,-1.9743,-1.974,-1.9779,-1.9775,-1.9786,-1.9795,-1.9859,-1.9878,-1.9846,-1.9955,-1.9927,-1.9935,-1.994,-1.995,-1.9957,-1.9951,-1.9824,0,0,0,0,0,-1.9541,-1.9584,-1.9619,-1.9677,-1.9693,-1.9715,-1.9741,-1.9746,-1.978,-1.9794,-1.9819,-1.9852,-1.9895,-1.9924,-1.9965,-2.0036,-2.0046,-2.0068,-2.0075,-2.0081,-2.0087,-2.0128,-2.0138,-2.0026,-2.0026,-2.0026,0,0,-1.9566,-1.9595,-1.9621,-1.9681,-1.9707,-1.9751,-1.9727,-1.9775,-1.9808,-1.9801,-1.9862,-1.9882,-1.992,-1.9987,-2.0018,-2.0005,-2.0121,-2.0087,-2.0091,-2.0095,-2.0134,-2.0145,-2.0154,-2.0029,-2.0029,-2.0028,0,0,-1.9634,-1.966,-1.9711,-1.9738,-1.9778,-1.9792,-1.9805,-1.9844,-1.9856,-1.9918,-1.9914,-1.9954,-2.0027,-2.0055,-2.0079,-2.0159,-2.0154,-2.0172,-2.021,-2.0249,-2.0257,-2.0265,-2.0295,-2.0305,-2.0179,-2.0179,-2.0179,0,-1.966,-1.9727,-1.9737,-1.9786,-1.9813,-1.981,-1.9862,-1.9887,-1.9939,-1.9957,-1.9942,-2.0036,-2.0061,-2.0135,-2.0155,-2.0174,-2.0189,-2.0167,-2.0255,-2.0263,-2.0271,-2.0299,-2.031,-2.0181,-2.0181,-2.0181,-2.018,0,-1.9757,-1.9803,-1.984,-1.989,-1.9921,-1.9971,-1.999,-2.002,-2.0023,-2.0039,-2.0103,-2.0133,-2.0181,-2.0199,-2.0202,-2.0275,-2.0265,-2.0253,-2.0225,-2.0284,-2.031,-2.0321,-2.0184,-2.0183,-2.0183,-2.0182,0,0,-1.9837,-1.9893,-1.9907,-1.993,-1.9974,-2.0011,-2.0061,-2.0109,-2.0135,-2.017,-2.0213,-2.0277,-2.0266,-2.0293,-2.0299,-2.0333,-2.0396,-2.0317,-2.0318,-2.0331,-2.0478,-2.0488,-2.05,-2.0393,-2.0395,-2.0397,-2.0475,0,-1.9909,-1.9999,-2.001,-2.009,-2.0133,-2.0132,-2.0176,-2.0208,-2.0225,-2.0265,-2.0283,-2.0328,-2.031,-2.0326,-2.036,-2.0381,-2.0426,-2.0376,-2.0433,-2.0435,-2.0424,-2.0514,-2.0524,-2.0597,-2.0486,-2.0488,-2.0489,0,-2.0006,-2.0045,-2.0129,-2.0169,-2.0187,-2.0227,-2.0272,-2.031,-2.0347,-2.0357,-2.0388,-2.039,-2.0443,-2.0413,-2.0486,-2.0452,-2.0477,-2.0491,-2.0494,-2.0499,-2.0465,-2.0522,-2.062,-2.0631,-2.0505,-2.0504,-2.0503,0,-2.0056,-2.013,-2.019,-2.021,-2.0258,-2.0286,-2.0307,-2.0342,-2.037,-2.041,-2.0428,-2.0473,-2.0498,-2.0533,-2.0547,-2.0524,-2.062,-2.0591,-2.063,-2.063,-2.065,-2.0649,-2.0753,-2.0666,-2.0666,-2.0665,-2.0665,0,-2.0136,-2.0187,-2.0214,-2.0251,-2.0309,-2.0322,-2.0379,-2.0399,-2.0431,-2.0472,-2.0473,-2.0511,-2.0529,-2.057,-2.0582,-2.0641,-2.0652,-2.0662,-2.0665,-2.0662,-2.0661,-2.0678,-2.0674,-2.0668,-2.0668,-2.0667,-2.0667,0,-2.0202,-2.0222,-2.0287,-2.0327,-2.0339,-2.038,-2.0414,-2.045,-2.0467,-2.0519,-2.0532,-2.0559,-2.0608,-2.0627,-2.0686,-2.0694,-2.0763,-2.0761,-2.075,-2.0751,-2.0789,-2.0786,-2.0909,-2.0926,-2.0827,-2.0828,-2.0828,0,-2.0252,-2.0291,-2.0336,-2.0364,-2.0386,-2.0431,-2.046,-2.0475,-2.0505,-2.0551,-2.0582,-2.0631,-2.0671,-2.0749,-2.0774,-2.082,-2.082,-2.086,-2.0826,-2.0823,-2.0821,-2.0819,-2.0823,-2.0866,-2.0867,-2.0868,-2.0868,0,-2.0338,-2.0346,-2.0388,-2.0434,-2.0469,-2.0505,-2.0541,-2.0564,-2.0584,-2.0618,-2.0669,-2.07,-2.0761,-2.081,-2.0857,-2.0879,-2.0878,-2.0879,-2.089,-2.0888,-2.0881,-2.0886,-2.0768,-2.0876,-2.0875,-2.0874,-2.0874,-2.0874,-2.0398,-2.0433,-2.0471,-2.0518,-2.0547,-2.058,-2.0616,-2.0638,-2.0681,-2.0732,-2.0739,-2.0793,-2.083,-2.0894,-2.0918,-2.0961,-2.095,-2.0966,-2.0971,-2.0975,-2.0978,-2.0874,-2.0969,-2.0969,-2.0969,-2.0969,-2.0969,0,-2.0484,-2.0509,-2.0552,-2.0602,-2.064,-2.0635,-2.0675,-2.0706,-2.0754,-2.0789,-2.0829,-2.0887,-2.0935,-2.0964,-2.1012,-2.1041,-2.1042,-2.1053,-2.1051,-2.1057,-2.0984,-2.097,-2.1052,-2.1052,-2.1052,-2.1052,-2.1052,-2.1052,-2.0534,-2.0594,-2.0607,-2.0682,-2.0706,-2.076,-2.0783,-2.0814,-2.0842,-2.0908,-2.0948,-2.0966,-2.0999,-2.105,-2.1094,-2.1101,-2.1119,-2.1132,-2.1138,-2.107,-2.1062,-2.1053,-2.104,-2.1135,-2.1136,-2.1207,-2.1208,-2.1208]}]]